TIME,DELAY(SENSOR),PRES,T(CTD),SAL,OXYGEN,RAWTEMP,T(OPTODE),TCPHASE,TURBIDITY,TURBIDITY_GAIN,FLUOR,BETA,CDOM,ED411.5,ED443.8,ED489.6,PAR,COMP,TILT,TILTY(TILT),CHECK
1341425154,6468,224.4499969482422000,5.2512001991271970,34.9948005676269500,357.9560852050781000,644.3698120117188000,5.2329139709472660,32.4067382812500000,15,3,50,125,62,2147634207,2147395853,2147286051,2148322116,2585,0,-4,21040
1341425214,6467,220.9799957275390600,5.2623000144958500,34.9957008361816400,357.9620056152344000,644.1008911132812000,5.2416338920593260,32.4017601013183600,10,3,49,117,62,2147634870,2147392684,2147286098,2148321014,2390,0,-4,30764
1341425274,6468,217.5399932861328000,5.2677001953125000,34.9964981079101560,358.0544128417969000,643.9044189453125000,5.2480111122131350,32.3951797485351560,16,3,49,117,63,2147633613,2147391693,2147284977,2148317531,2177,0,-4,51855
1341425334,6470,214.1399993896484400,5.2765002250671390,34.9970016479492200,358.0185852050781000,643.6409912109375000,5.2565541267395020,32.3918113708496100,16,3,49,118,62,2147636393,2147391697,2147283057,2148320502,1954,0,-4,7251
1341425394,6467,210.8000030517578000,5.2793002128601070,34.9976005554199200,358.0451049804687500,643.4860839843750000,5.2615780830383300,32.3880615234375000,16,3,48,118,62,2147639313,2147391500,2147288584,2148318253,1724,0,-4,61181
1341425456,6468,207.4600067138672000,5.2912998199462890,34.9981994628906250,358.1369934082031000,643.1896972656250000,5.2711892127990720,32.3797607421875000,16,3,50,122,62,2147637202,2147390596,2147283730,2148321526,1571,0,-4,24841
1341425516,6469,204.2700042724609400,5.2946000099182130,34.9987983703613300,358.2520141601562500,643.0601806640625000,5.2753891944885250,32.3741111755371100,16,3,49,118,62,2147635724,2147393444,2147285558,2148320813,1373,0,-4,59837
1341425576,6468,201.1799926757812500,5.2979001998901370,34.9989013671875000,358.3483886718750000,642.9539794921875000,5.2788300514221190,32.3690490722656250,10,3,49,122,62,2147632712,2147392173,2147287153,2148321997,1129,0,-4,13968
1341425636,6469,198.1499938964843800,5.3007001876831055,34.9990005493164060,358.3275146484375000,642.8690795898438000,5.2815837860107420,32.3680191040039060,16,3,48,123,62,2147636731,2147394948,2147287437,2148320721,872,0,-4,3913
1341425696,6468,195.1699981689453000,5.3049998283386230,34.9991989135742200,358.3414916992187500,642.7506713867188000,5.2854251861572270,32.3653182983398440,16,3,48,119,62,2147633572,2147394747,2147288525,2148322089,361,0,-4,63307
1341425760,6468,192.0899963378906200,5.3087000846862790,34.9996986389160160,358.4480895996094000,642.6088256835938000,5.2900261878967285,32.3595085144043000,15,3,49,120,62,2147635281,2147392511,2147288484,2148321416,3356,0,-4,22509
1341425820,6468,189.2599945068359400,5.3123002052307130,34.9992980957031250,358.4227905273437500,642.5366210937500000,5.2923660278320310,32.3589897155761700,16,3,50,122,62,2147636402,2147392621,2147289137,2148321073,2935,0,-4,54228
1341425884,6468,186.2299957275390600,5.3147001266479490,34.9995994567871100,358.4932861328125000,642.4589233398438000,5.2948842048645020,32.3554382324218750,16,3,50,128,61,2147637234,2147392315,2147289860,2148321398,2672,0,-4,32049
1341425944,6467,183.4100036621093800,5.3176999092102050,35.0001983642578100,358.4364929199219000,642.3560791015625000,5.2982177734375000,32.3553009033203100,16,3,50,123,63,2147635199,2147393650,2147289522,2148322559,2550,0,-4,47700
1341426008,6469,180.4100036621093800,5.3234000205993650,35.0000991821289060,358.4194946289062500,642.1951293945312000,5.3034381866455080,32.3530311584472660,16,3,49,123,62,2147636159,2147393155,2147290403,2148319853,2367,0,-4,4179
1341426070,6467,177.5700073242187500,5.3256001472473145,35.0004997253418000,358.5050048828125000,642.1074829101562000,5.3062782287597660,32.3486595153808600,10,3,50,132,62,2147636575,2147392383,2147288026,2148322477,2236,0,-4,54422
1341426134,6467,174.6399993896484400,5.3323998451232910,35.0009002685546900,358.3998107910156000,641.9074707031250000,5.3127589225769040,32.3485717773437500,16,3,48,140,62,2147636260,2147393439,2147293586,2148321179,2027,0,-4,25453
1341426194,6467,171.9400024414062500,5.3385000228881840,35.0004005432128900,358.4146118164062500,641.7266845703125000,5.3186211585998535,32.3449096679687500,17,3,50,143,62,2147634070,2147392447,2147291876,2148322034,1838,0,-4,61297
1341426258,6468,169.1100006103515600,5.3450999259948730,35.0014991760253900,358.3713989257812500,641.5001220703125000,5.3259677886962890,32.3422889709472660,30,3,49,142,62,2147633969,2147391958,2147291322,2148322339,1691,0,-4,11607
1341426318,6468,166.5000000000000000,5.3512001037597660,35.0013999938964840,358.3335876464844000,641.2996215820312000,5.3324661254882810,32.3398284912109400,16,3,50,125,64,2147632991,2147391812,2147287268,2148321279,1502,0,-4,8709
1341426382,6467,163.7500000000000000,5.3607001304626465,35.0018997192382800,358.2221984863281000,641.0020141601562000,5.3421101570129395,32.3383293151855500,16,3,50,126,62,2147636863,2147390957,2147292607,2148323204,1301,0,-4,30785
1341426444,6466,161.1100006103515600,5.3702001571655270,35.0023002624511700,358.2012939453125000,640.7542724609375000,5.3501358032226560,32.3344383239746100,16,3,50,129,62,2147633453,2147393499,2147292232,2148320598,1045,0,-4,5213
1341426508,6468,158.4199981689453000,5.3797998428344730,35.0018005371093750,358.1329956054687500,640.4954833984375000,5.3585209846496580,32.3321990966796900,16,3,50,125,62,2147635999,2147392173,2147293695,2148320534,661,0,-4,60921
1341426568,6468,155.9199981689453000,5.3814997673034670,35.0023994445800800,358.0679016113281000,640.4038085937500000,5.3614921569824220,32.3325195312500000,16,3,50,136,62,2147635628,2147393919,2147292685,2148320616,256,0,-4,43099
1341426632,6469,153.2500000000000000,5.3832001686096190,35.0031013488769500,357.9836120605469000,640.3284301757812000,5.3639340400695800,32.3338012695312500,16,3,50,131,62,2147637700,2147396854,2147294427,2148318317,3416,0,-4,44476
1341426694,6467,150.5500030517578000,5.3935999870300290,35.0029983520507800,357.7865905761719000,640.0369873046875000,5.3733749389648440,32.3350982666015600,15,3,50,126,61,2147634262,2147394348,2147296836,2148324384,3103,0,-4,23448
1341426758,6468,147.7200012207031200,5.3969998359680180,35.0031013488769500,357.6507873535156000,639.9240722656250000,5.3770308494567870,32.3374214172363300,16,3,50,138,62,2147638431,2147393562,2147300918,2148319555,2936,0,-4,41335
1341426818,6469,144.9400024414062500,5.4021000862121580,35.0032997131347660,357.5629882812500000,639.7498168945312000,5.3826808929443360,32.3373489379882800,16,3,50,127,62,2147634715,2147395666,2147302180,2148324000,2640,0,-4,42053
1341426882,6468,141.8500061035156200,5.4134001731872560,35.0031013488769500,357.5145874023437500,639.4343872070312000,5.3928952217102050,32.3332595825195300,16,3,50,152,62,2147635364,2147393252,2147304292,2148323647,2386,0,-4,42197
1341426942,6468,138.8600006103515600,5.4172000885009770,35.0037002563476560,357.2182922363281000,639.2631225585938000,5.3984432220458980,32.3397407531738300,16,3,50,134,62,2147634610,2147395341,2147307899,2148322605,2230,0,-4,8429
1341427006,6468,135.5500030517578000,5.4405999183654785,35.0041007995605500,356.8439025878906000,638.6500244140625000,5.4182991981506350,32.3410987854003900,17,3,50,137,62,2147635345,2147397233,2147314262,2148324150,1992,0,-4,2108
1341427066,6467,132.3800048828125000,5.4454998970031740,35.0046997070312500,356.4765930175781000,638.4531860351562000,5.4246687889099120,32.3493690490722660,16,3,50,124,62,2147635519,2147396940,2147322632,2148327199,1897,0,-4,64918
1341427130,6469,128.9700012207031200,5.4569001197814940,35.0054016113281250,356.3362121582031000,638.0930175781250000,5.4363331794738770,32.3477592468261700,16,3,50,160,62,2147636667,2147400799,2147327533,2148326500,1727,0,-4,44472
1341427190,6469,125.6900024414062500,5.4710001945495605,35.0054016113281250,356.1113891601562500,637.6624145507812000,5.4502739906311035,32.3472404479980500,12,3,50,136,62,2147637036,2147398171,2147334450,2148326747,1518,0,-4,53571
1341427254,6467,122.1699981689453100,5.4867000579833980,35.0066986083984400,355.8438110351562500,637.1104736328125000,5.4681358337402340,32.3462486267089840,16,3,50,127,62,2147637042,2147400525,2147345521,2148329430,1415,0,-4,52121
1341427316,6467,118.8199996948242200,5.4991002082824710,35.0069007873535160,355.8438110351562500,636.7971191406250000,5.4782810211181640,32.3408088684082000,15,3,50,133,62,2147633970,2147404658,2147362161,2148328617,993,0,-4,39060
1341427380,6468,115.3700027465820300,5.5177001953125000,35.0068016052246100,355.8330078125000000,636.2097167968750000,5.4972858428955080,32.3305587768554700,24,3,50,128,62,2147636319,2147406043,2147373773,2148331706,879,0,-4,61598
1341427440,6468,112.2399978637695300,5.5461001396179200,35.0075988769531250,355.6965026855469000,635.4354858398438000,5.5223312377929690,32.3217086791992200,16,3,52,130,62,2147637201,2147406586,2147391739,2148332260,595,0,-4,63926
1341427504,6468,108.9400024414062500,5.5515999794006350,35.0080986022949200,355.4667968750000000,635.1093139648438000,5.5328869819641110,32.3231315612793000,135,3,52,132,62,2147634445,2147409073,2147407492,2148338422,369,0,-4,30988
1341427564,6465,105.9000015258789000,5.5880999565124510,35.0065002441406250,355.4883117675781000,634.1287841796875000,5.5645937919616700,32.3052101135253900,16,3,52,133,62,2147636223,2147417892,2147422898,2148337873,56,0,-4,53654
1341427628,6468,102.7900009155273400,5.6161999702453610,35.0056991577148440,356.0987854003906000,633.2525024414062000,5.5929241180419920,32.2700500488281250,12,3,52,131,62,2147638934,2147418673,2147444364,2148343793,3439,0,-4,41749
1341427688,6467,99.9599990844726600,5.6315999031066895,35.0060005187988300,356.8117980957031000,632.6657104492188000,5.6118888854980470,32.2364501953125000,31,3,54,145,61,2147638564,2147423725,2147463478,2148346468,3062,0,-4,20865
1341427752,6467,97.0199966430664000,5.6647000312805180,35.0073013305664060,357.1440124511719000,631.7581787109375000,5.6412119865417480,32.2099304199218750,13,3,55,138,62,2147642321,2147432058,2147485837,2148348351,2761,0,-4,32275
1341427814,6467,94.2600021362304700,5.6814999580383300,35.0055007934570300,357.4139099121094000,631.1062011718750000,5.6622791290283200,32.1898612976074200,19,3,55,137,62,2147638751,2147431835,2147507602,2148354047,2516,0,-4,54927
1341427878,6467,91.4700012207031200,5.7104001045227050,35.0051994323730500,358.0217895507812500,630.3162231445312000,5.6877961158752440,32.1563606262207000,16,3,54,145,62,2147643126,2147436744,2147528777,2148357000,2551,0,-4,26573
1341427940,6468,88.9199981689453100,5.7420001029968260,35.0043983459472660,358.5383911132812500,629.3068237304688000,5.7203850746154785,32.1222496032714840,16,3,56,155,62,2147641119,2147442614,2147548895,2148361430,2612,0,-4,19727
1341428004,6469,86.4000015258789000,5.7657999992370605,35.0040016174316400,359.6235046386719000,628.5936889648438000,5.7434039115905760,32.0749702453613300,15,3,57,155,62,2147646934,2147447519,2147566486,2148363021,2564,0,-4,59360
1341428066,6469,84.0400009155273400,5.7836999893188480,35.0033988952636700,360.4439086914062500,628.0084228515625000,5.7622971534729000,32.0383491516113300,18,3,56,196,62,2147641933,2147454683,2147589375,2148369060,2438,0,-4,31881
1341428158,6469,79.8099975585937500,5.8467998504638670,35.0022010803222660,362.2887878417969000,625.9736938476562000,5.8279337882995605,31.9445209503173830,35,3,58,159,62,2147648077,2147465887,2147637545,2148380872,2320,0,-4,29662
1341428220,6468,76.1299972534179700,5.8952999114990230,35.0018997192382800,364.3086853027344000,624.4677124023438000,5.8764920234680180,31.8545894622802730,15,3,59,173,62,2147652365,2147476589,2147685526,2148389773,2204,0,-4,32445
1341428284,6468,72.3600006103515600,5.9387998580932620,35.0014991760253900,366.0103149414062500,623.2319946289062000,5.9163150787353520,31.7797908782959000,22,3,63,175,62,2147657292,2147494870,2147747277,2148407021,2054,0,-4,48166
1341428346,6468,68.7200012207031200,5.9780998229980470,35.0003013610839840,367.1495056152344000,621.9885253906250000,5.9563751220703125,31.7227306365966800,22,3,68,184,62,2147665329,2147519423,2147821937,2148423025,1908,0,-4,45930
1341428410,6466,65.0100021362304700,6.0440998077392580,35.0005989074707000,367.8550109863281000,619.8848876953125000,6.0241088867187500,31.6645908355712900,18,3,75,177,62,2147674495,2147545046,2147903020,2148445531,1744,0,-4,21120
1341428472,6467,61.4599990844726560,6.0718002319335940,35.0023002624511700,368.1754150390625000,619.0474243164062000,6.0510640144348145,31.6403903961181640,25,3,84,184,62,2147687656,2147577352,2148015203,2148473293,1522,0,-4,36393
1341428536,6467,57.7500000000000000,6.1030998229980470,35.0028991699218750,368.1767883300781000,618.0054931640625000,6.0845851898193360,31.6226196289062500,17,3,97,233,62,2147710660,2147632201,2148176598,2148518623,1223,0,-4,52693
1341428598,6470,54.0699996948242200,6.1283998489379880,35.0022010803222660,368.3099060058594000,617.1790161132812000,6.1111698150634770,31.6043491363525400,21,3,110,194,62,2147738633,2147698417,2148365892,2148570545,1028,0,-4,30049
1341428662,6469,50.3100013732910160,6.1606998443603520,35.0014991760253900,368.2651062011719000,616.1793212890625000,6.1433157920837400,31.5887107849121100,22,3,130,222,64,2147788562,2147802152,2148641827,2148654564,647,0,-4,1509
1341428724,6469,46.7599983215332000,6.2337999343872070,34.9998016357421900,367.4309082031250000,613.9387817382812000,6.2153220176696780,31.5762996673584000,25,3,148,236,62,2147865384,2147935981,2148986472,2148759039,90,0,-4,9501
1341428788,6471,43.2099990844726560,6.1382999420166020,34.9725990295410160,366.4003906250000000,616.5473022460938000,6.1314830780029300,31.6530208587646500,50,3,138,205,62,2147925759,2148037476,2149230358,2148847867,3098,0,-4,41871
1341428850,6470,39.9300003051757800,6.2094001770019530,34.9617996215820300,364.1196899414062500,614.9000854492188000,6.1844329833984375,31.6960391998291000,23,3,180,263,62,2148035945,2148203670,2149608324,2148986422,2852,0,-4,35933
1341428914,6470,36.7500000000000000,6.4482002258300780,34.9627990722656250,363.7749023437500000,606.7503051757812000,6.4460282325744630,31.5682506561279300,26,3,246,257,61,2148206706,2148463090,2150213261,2149205325,2788,0,-4,57514
1341428976,6468,34.0600013732910160,6.8322000503540040,34.9810981750488300,366.6586914062500000,594.9296875000000000,6.8243031501770020,31.2806205749511720,53,3,404,429,63,2148513901,2148920118,2151218610,2149549984,2799,0,-4,5928
1341429040,6470,31.6100006103515620,7.0208997726440430,34.9836006164550800,372.2858886718750000,589.2745971679688000,7.0048050880432130,31.0143699645996100,64,3,473,492,64,2148944927,2149524274,2152448544,2149973800,3102,0,-5,36058
1341429102,6469,29.3199996948242200,7.2529997825622560,34.9804000854492200,377.2065124511719000,582.3214721679688000,7.2263321876525880,30.7526607513427730,80,3,528,667,64,2149549728,2150329041,2153946660,2150506404,2975,0,-4,2050
1341429190,6468,25.8099994659423830,7.6630997657775880,34.9715003967285160,383.3482055664062500,569.4918212890625000,7.6339440345764160,30.3646106719970700,101,3,586,790,64,2151309119,2152527437,2157630468,2151867592,2219,0,-4,55306
1341429252,6469,23.0599994659423830,7.8361001014709470,34.9715995788574200,390.2347106933594000,563.9912719726562000,7.8082518577575680,30.0786399841308600,99,3,610,792,63,2153652671,2155301357,2161793110,2153439267,1816,0,-4,7117
1341429316,6469,20.6599998474121100,8.1225004196167000,34.9701004028320300,396.8447875976562500,555.1533203125000000,8.0877819061279300,29.7537994384765620,112,3,615,783,63,2156960146,2159067872,2166846097,2155393196,1550,0,-4,36535
1341429378,6471,19.1499996185302730,8.2706003189086910,34.9656982421875000,402.1333923339844000,548.3193969726562000,8.3034753799438480,29.5015907287597660,102,3,607,783,62,2160261196,2162675218,2171122751,2156978820,1709,0,-4,53836
1341429492,6469,17.5200004577636720,9.7459001541137700,34.9594993591308600,404.8612060546875000,505.2695007324219000,9.6537294387817380,28.7803592681884770,87,3,379,645,59,2167403163,2170324684,2179254637,2160151112,2228,2,-4,59365
1341429607,6471,13.9600000381469730,11.3956003189086910,34.9818000793457000,376.5816955566406000,449.7315063476562500,11.3764600753784180,28.7694206237792970,83,3,262,686,58,2179317311,2183113256,2193486468,2166792177,1207,0,-5,31663
1341429669,6470,10.1099996566772460,11.5658998489379880,34.9935989379882800,366.5629882812500000,444.1185913085937500,11.5495100021362300,28.9833793640136720,94,3,238,682,56,2194443217,2198776022,2209945499,2176050459,771,9,-7,11354
1341429734,6468,5.6399998664855960,11.6089000701904300,34.9964981079101560,361.6520996093750000,442.1361083984375000,11.6105899810791020,29.1023597717285160,82,3,207,649,62,2217555034,2222057160,2232861229,2194230985,3150,-6,-10,41715
1341429786,6468,3.6600000858306885,0.0000000000000000,0.0000000000000000,359.9183044433594000,439.7680969238281000,11.6835203170776370,29.1215400695800780,87,3,196,579,58,2226126102,2230533622,2240865782,2203239894,2103,12,-1,16278
1341429819,6469,184.0000000000000000,0.0000000000000000,0.0000000000000000,358.8385925292969000,439.2244873046875000,11.7002601623535160,29.1466102600097660,77,3,174,609,56,2236645677,2240938495,2250570080,2219902147,3122,-25,3,22090
